Flag for Netherlands Weather past 2 weeks in Amsterdam, Netherlands

Now
57 °F

Sprinkles. Scattered clouds.


Feels Like: 55 °F
Forecast: 52 / 63 °F
Wind: 10 mph from Southwest

Location: Amsterdam Schiphol Airport

Current Time: Aug 22, 2014 at 4:15:52 PM

Latest Report: Aug 22, 2014 at 3:55 PM


Visibility: N/A

Pressure: 29.80 "Hg

Humidity: 94%

Dew point: 55 °F

Location of AmsterdamLocation

Historic Weather in Amsterdam — Graph

°F

Amsterdam temperature yesterday

Maximum temperature yesterday: 64 °F (at 4:25 PM)
Minimum temperature yesterday: 46 °F (at 5:55 AM)
Average temperature yesterday: 56 °F

Past Weeks' High & Low Weather Summary

 TemperatureHumidityPressure
High75 °F (Aug 7, 2:25 PM)100% (Aug 8, 3:25 AM)30.07 "Hg (Aug 8, 3:25 AM)
Low46 °F (Aug 21, 5:55 AM)47% (Aug 9, 3:55 PM)29.45 "Hg (Aug 10, 6:25 PM)
Average61 °F79%29.80 "Hg
* Reported Aug 7 2:25 PM — Aug 22 2:55 PM, Amsterdam, Weather by CustomWeather, © 2014

Note: Actual official high and low records may vary slightly from our data, if they occured in-between our weather recording intervals... More about our weather records

Advertising

Amsterdam weather history for previous 24 hours

 ConditionsComfort  
Time TempWeatherWind HumidityBarometerVisibility
2:55 PM
Aug 22
55 °FSprinkles. Scattered clouds.8 mph94%29.80 "HgN/A
2:25 PM55 °FRain showers. Scattered clouds.14 mph94%29.80 "Hg3 mi
1:55 PM57 °FThunderstorms. Scattered clouds.15 mph94%29.80 "Hg4 mi
1:25 PM59 °FSprinkles. Passing clouds.18 mph82%29.80 "HgN/A
12:55 PM59 °FSprinkles. Passing clouds.15 mph88%29.80 "HgN/A
12:25 PM59 °FRain showers. Passing clouds.16 mph88%29.80 "Hg5 mi
11:55 AM61 °FSprinkles. Passing clouds.21 mph83%29.80 "HgN/A
11:25 AM59 °FSprinkles. Passing clouds.15 mph88%29.80 "HgN/A
10:55 AM57 °FSprinkles. Passing clouds.18 mph88%29.80 "HgN/A
10:25 AM57 °FScattered showers. Passing clouds.17 mph88%29.80 "HgN/A
9:55 AM57 °FSprinkles. Passing clouds.23 mph88%29.80 "HgN/A
9:25 AM57 °FSprinkles. Passing clouds.16 mph88%29.80 "HgN/A
8:55 AM57 °FScattered showers. Passing clouds.14 mph88%29.80 "HgN/A
8:25 AM57 °FSprinkles. Passing clouds.13 mph88%29.80 "Hg6 mi
7:55 AM55 °FSprinkles. Passing clouds.16 mph94%29.80 "HgN/A
7:25 AM55 °FSprinkles. Passing clouds.17 mph94%29.80 "HgN/A
6:55 AM55 °FPassing clouds.18 mph88%29.80 "HgN/A
6:25 AM55 °FPassing clouds.16 mph94%29.80 "HgN/A
5:55 AM55 °FSprinkles. Passing clouds.15 mph88%29.80 "HgN/A
5:25 AM55 °FPassing clouds.16 mph88%29.83 "HgN/A
4:55 AM55 °FPassing clouds.17 mph88%29.83 "HgN/A
4:25 AM55 °FPassing clouds.14 mph94%29.83 "HgN/A
3:55 AM55 °FSprinkles. Passing clouds.15 mph88%29.83 "HgN/A
3:25 AM55 °FPassing clouds.13 mph88%29.83 "HgN/A
2:55 AM55 °FPassing clouds.14 mph88%29.86 "HgN/A
2:25 AM55 °FPassing clouds.12 mph88%29.86 "HgN/A
1:55 AM55 °FPassing clouds.10 mph94%29.86 "HgN/A
1:25 AM54 °FSprinkles. Passing clouds.10 mph100%29.89 "HgN/A
12:55 AM55 °FRain showers. Passing clouds.17 mph94%29.89 "Hg4 mi
12:25 AM55 °FSprinkles. Passing clouds.15 mph94%29.89 "HgN/A
11:55 PM
Aug 21
55 °FSprinkles. Passing clouds.10 mph88%29.89 "HgN/A
11:25 PM55 °FPassing clouds.12 mph88%29.89 "HgN/A
10:55 PM57 °FRain showers. Passing clouds.10 mph72%29.89 "HgN/A
10:25 PM54 °FPassing clouds.9 mph82%29.89 "HgN/A
9:55 PM55 °FPassing clouds.12 mph77%29.89 "HgN/A
9:25 PM57 °FPassing clouds.12 mph72%29.89 "HgN/A
8:55 PM57 °FPassing clouds.12 mph77%29.92 "HgN/A
8:25 PM59 °FPassing clouds.9 mph72%29.92 "HgN/A
7:55 PM61 °FScattered clouds.13 mph68%29.92 "HgN/A
7:25 PM61 °FScattered clouds.15 mph63%29.92 "HgN/A
6:55 PM61 °FScattered clouds.18 mph59%29.92 "HgN/A
6:25 PM63 °FScattered clouds.15 mph56%29.92 "HgN/A
5:55 PM63 °FPassing clouds.16 mph56%29.95 "HgN/A
5:25 PM64 °FPassing clouds.15 mph56%29.95 "HgN/A
4:55 PM64 °FScattered clouds.15 mph60%29.95 "HgN/A
4:25 PM64 °FScattered clouds.14 mph64%29.95 "HgN/A
Weather by CustomWeather, © 2014

See weather overviewHow to use our weather pages